Regional Weather Roundup
Issued by NWS New Orleans/Baton Rouge, LA

Home | Current Version | Previous Version | Text Only | Print | Product List | Glossary On
Versions: 1 2 3 4 5 6 7 8 9 10 11 12 13 14 15 16 17 18 19 20 21 22 23 24 25 26 27
000
ASUS44 KLIX 271711
RWRLIX
NEW ORLEANS REGIONAL WEATHER ROUNDUP
NATIONAL WEATHER SERVICE NEW ORLEANS LA
1200 PM CDT SAT AUG 27 2016

NOTE: "FAIR" INDICATES FEW OR NO CLOUDS BELOW 12,000 FEET WITH NO
      SIGNIFICANT WEATHER AND/OR OBSTRUCTIONS TO VISIBILITY.
      SKY/WX - SKY CONDITION AND SIGNIFICANT WEATHER.
      TMP - AIR TEMPERATURE.     DP    - DEWPOINT TEMPERATURE.
      RH  - RELATIVE HUMIDITY.   PRES  - PRESSURE.
      HI  - HEAT INDEX.          WCI   - WIND CHILL INDEX.

*  THESE STATIONS ARE NOT NWS OR FAA STATIONS AND ARE NOT UNDER
   NWS QUALITY CONTROL.

LAZ038-040-048-061>063-065>067-069-271800-
SOUTHEAST LOUISIANA

CITY           SKY/WX    TMP DP  RH WIND       PRES   REMARKS
N.O. AUDUBON     N/A     86  78  76 MISG        N/A  HX  99
N.O. INTL ARPT CLOUDY    86  77  74 E7        29.99S HX  97
N.O. LAKEFRONT CLOUDY    84  78  82 E6        30.00F HX  95
N.O. DOWNTOWN* NOT AVBL
RESERVE*         N/A     85  80  82 E3        30.00S HX  99
SLIDELL        CLOUDY    85  76  74 NE6       29.99F
BATON ROUGE    CLOUDY    89  76  65 E8        29.99F HX 100
BOOTHVILLE     CLOUDY    86  76  71 E10       29.99R HX  96
BELLE CHASSE   CLOUDY    84  78  82 NE10      29.99S HX  95
BOGALUSA*        N/A     91  69  48 E6        30.03S HX  96
GALLIANO*      PTSUNNY   85  83  94 NE5       29.98S HX 105
NEW ROADS*       N/A     85  75  74 NE6       30.00S
GONZALES*      LGT RAIN  84  76  78 E5        29.98S
HAMMOND*       MOSUNNY   90  70  51 E8        30.00S HX  95
HOUMA*         PTSUNNY   82  79  89 NE5       29.98S
PORT FOURCHON* SUNNY     86  75  70 E8        29.98R HX  95

$$

MSZ070-080>082-271800-
SOUTHERN MISSISSIPPI

CITY           SKY/WX    TMP DP  RH WIND       PRES   REMARKS
MCCOMB         MOSUNNY   89  68  49 VRB6      30.03S
GULFPORT       SUNNY     91  73  55 NE8       29.99R HX  99
BILOXI         SUNNY     91  73  55 VRB7      29.99S HX 100
PASCAGOULA     MOSUNNY   90  75  61 NE7       30.00R HX 100
STENNIS ARPT*  MOSUNNY   90  66  45 CALM      29.99S

$$

COASTAL OBSERVATIONS
LAKE AND NEARSHORE STATIONS

STATION/POSITION TIME  TEMP    WIND        PRES    WAVE
                       AIR SEA DIR/SP/G            HT/PER
                 (UTC) (F)     (DEG/KT/KT) (MB)    (FT/S)
PASCAGOULA       1600   90      80/  8/ 12 1015.2
WAVELAND YACHT   1600   86 85   60/  6/  9 1015.8
GRAND ISLE       1600   86 85  100/  5/  9 1015.4
SOUTHWEST PASS   1600          100/ 10/ 11   N/A
NEW CANAL        1600   83 86   60/ 14/ 15 1014.9
SHELL BEACH      1600   82 86   60/ 15/ 20 1015.5

OFFSHORE STATIONS

STATION/POSITION TIME  TEMP    WIND        PRES    WAVE
                       AIR SEA DIR/SP/G            HT/PER
                 (UTC) (F)     (DEG/KT/KT) (MB)    (FT/S)
64 S DAUPHIN ISL 1600   83 86   90/  2/  4 1014.9

$$





USA.gov is the U.S. government's official web portal to all federal, state and local government web resources and services.